GW2128 Weather Reports


time (UTC)temp
C
wind
direction
speed
KPH
gust
KPH
rain 1hr
cm
rain 24hr
cm
rain mn
cm
humidity
%
barometer
mb
20260506134529 15 0.0 0.0 0.00 0.00 0.00 49 1017.1
20260506134029 15 0.0 0.0 0.00 0.00 0.00 48 1017.1
20260506133529 15 0.0 0.0 0.00 0.00 0.00 49 1017.2
20260506133029 15 0.0 0.0 0.00 0.00 0.00 50 1017.2
20260506132529 15 0.0 0.0 0.00 0.00 0.00 49 1017.2
20260506132029 15 0.0 0.0 0.00 0.00 0.00 48 1017.3
20260506131529 15 0.0 0.0 0.00 0.00 0.00 50 1017.1
20260506131029 15 0.0 0.0 0.00 0.00 0.00 50 1017.0
20260506130529 15 0.0 0.0 0.00 0.00 0.00 50 1017.1
20260506130029 15 0.0 0.0 0.00 0.00 0.00 50 1017.1
20260506125529 15 0.0 0.0 0.00 0.00 0.00 49 1017.3
20260506125029 15 0.0 0.0 0.00 0.00 0.00 51 1017.1
20260506124529 15 0.0 0.0 0.00 0.00 0.00 52 1017.2
20260506124029 14 0.0 0.0 0.00 0.00 0.00 51 1017.1
20260506123529 14 0.0 0.0 0.00 0.00 0.00 52 1017.2
20260506123029 14 0.0 0.0 0.00 0.00 0.00 51 1017.3
20260506122529 15 0.0 0.0 0.00 0.00 0.00 52 1017.1
20260506122030 15 0.0 0.0 0.00 0.00 0.00 52 1017.0
20260506121529 14 0.0 0.0 0.00 0.00 0.00 53 1017.1
20260506121029 14 0.0 0.0 0.00 0.00 0.00 52 1017.1
20260506120529 14 0.0 0.0 0.00 0.00 0.00 52 1017.3
20260506120029 14 0.0 0.0 0.00 0.00 0.00 54 1017.4
20260506115529 14 0.0 0.0 0.00 0.00 0.00 55 1017.5
20260506115029 13 0.0 0.0 0.00 0.00 0.00 55 1017.2
20260506114529 13 0.0 0.0 0.00 0.00 0.00 53 1017.5
20260506114029 14 0.0 0.0 0.00 0.00 0.00 54 1017.6
20260506113529 14 0.0 0.0 0.00 0.00 0.00 54 1017.3
20260506113029 14 0.0 0.0 0.00 0.00 0.00 55 1017.7
20260506112529 13 0.0 0.0 0.00 0.00 0.00 56 1017.8
20260506112029 13 0.0 0.0 0.00 0.00 0.00 56 1017.8
20260506111529 13 0.0 0.0 0.00 0.00 0.00 57 1017.7
20260506111029 13 0.0 0.0 0.00 0.00 0.00 58 1017.7
20260506110529 13 0.0 0.0 0.00 0.00 0.00 56 1017.7
20260506110029 13 0.0 0.0 0.00 0.00 0.00 58 1017.9
20260506105529 13 0.0 0.0 0.00 0.00 0.00 58 1017.8
20260506105029 13 0.0 0.0 0.00 0.00 0.00 59 1017.6
20260506104529 13 0.0 0.0 0.00 0.00 0.00 59 1017.9
20260506104029 12 0.0 0.0 0.00 0.00 0.00 59 1018.0
20260506103529 12 0.0 0.0 0.00 0.00 0.00 60 1018.2
20260506103029 12 0.0 0.0 0.00 0.00 0.00 59 1018.2
20260506102529 12 0.0 0.0 0.00 0.00 0.00 60 1017.9
20260506102029 12 0.0 0.0 0.00 0.00 0.00 61 1018.1
20260506101529 12 0.0 0.0 0.00 0.00 0.00 61 1017.6
20260506101029 12 0.0 0.0 0.00 0.00 0.00 61 1017.8
20260506100529 12 0.0 0.0 0.00 0.00 0.00 61 1018.0
20260506100029 12 0.0 0.0 0.00 0.00 0.00 61 1018.0
20260506095529 11 0.0 0.0 0.00 0.00 0.00 61 1018.0
20260506095029 11 0.0 0.0 0.00 0.00 0.00 62 1018.1
20260506094529 11 0.0 0.0 0.00 0.00 0.00 62 1017.9
20260506094029 11 0.0 0.0 0.00 0.00 0.00 61 1018.1
20260506093529 12 0.0 0.0 0.00 0.00 0.00 62 1018.1
20260506093029 11 0.0 0.0 0.00 0.00 0.00 63 1018.1
20260506092529 11 0.0 0.0 0.00 0.00 0.00 63 1018.0
20260506092029 11 0.0 0.0 0.00 0.00 0.00 63 1018.1
20260506091529 11 0.0 0.0 0.00 0.00 0.00 63 1018.1
20260506091029 11 156 3.2 3.2 0.00 0.00 0.00 64 1018.3
20260506090529 11 156 3.2 3.2 0.00 0.00 0.00 64 1018.1
20260506090029 11 106 6.4 9.7 0.00 0.00 0.00 63 1018.3
20260506085529 11 136 3.2 3.2 0.00 0.00 0.00 62 1018.0
20260506085029 12 136 3.2 3.2 0.00 0.00 0.00 63 1018.3
20260506084529 12 99 6.4 6.4 0.00 0.00 0.00 63 1018.3
20260506084029 12 0.0 0.0 0.00 0.00 0.00 65 1018.3
20260506083529 12 0.0 0.0 0.00 0.00 0.00 66 1018.2
20260506083029 11 0.0 0.0 0.00 0.00 0.00 67 1018.5
20260506082529 11 0.0 0.0 0.00 0.00 0.00 67 1018.3
20260506082029 10 0.0 0.0 0.00 0.00 0.00 68 1018.4
20260506081529 10 0.0 0.0 0.00 0.00 0.00 69 1018.3
20260506081029 10 0.0 0.0 0.00 0.00 0.00 70 1018.2
20260506080529 9 74 3.2 3.2 0.00 0.00 0.00 70 1018.4
20260506073529 8 81 4.8 4.8 0.00 0.00 0.00 70 1018.4
20260506073029 8 81 3.2 3.2 0.00 0.00 0.00 70 1018.2
20260506072529 7 98 0.0 0.0 0.00 0.00 0.00 71 1018.2
20260506072029 7 92 1.6 1.6 0.00 0.00 0.00 72 1018.3
20260506071529 7 63 0.0 1.6 0.00 0.00 0.00 72 1018.3
20260506071029 7 0.0 0.0 0.00 0.00 0.00 73 1018.4
20260506070529 7 0.0 0.0 0.00 0.00 0.00 73 1018.2
20260506062029 6 125 1.6 1.6 0.00 0.00 0.00 74 1018.0
20260506061529 5 127 0.0 0.0 0.00 0.00 0.00 74 1018.2
20260506061028 5 152 0.0 0.0 0.00 0.00 0.00 74 1018.1
20260506060528 5 152 0.0 0.0 0.00 0.00 0.00 74 1018.3
20260506051028 5 0.0 0.0 0.00 0.00 0.00 74 1018.2
20260506050528 5 0.0 0.0 0.00 0.00 0.00 74 1018.2
20260506045028 4 0.0 0.0 0.00 0.00 0.00 74 1018.0
20260506044528 4 0.0 0.0 0.00 0.00 0.00 74 1018.0
20260506044028 4 0.0 0.0 0.00 0.00 0.00 74 1018.1
20260506043529 3 0.0 0.0 0.00 0.00 0.00 74 1018.1
20260506043028 3 0.0 0.0 0.00 0.00 0.00 74 1018.2
20260506042528 3 0.0 0.0 0.00 0.00 0.00 74 1018.1
20260506042028 3 0.0 0.0 0.00 0.00 0.00 74 1018.0
20260506041528 3 0.0 0.0 0.00 0.00 0.00 74 1018.2
20260506041028 3 0.0 0.0 0.00 0.00 0.00 74 1017.9
20260506040528 4 0.0 0.0 0.00 0.00 0.00 74 1018.1
20260506040028 4 0.0 0.0 0.00 0.00 0.00 74 1018.0
20260506035528 3 0.0 0.0 0.00 0.00 0.00 74 1017.9
20260506035028 4 0.0 0.0 0.00 0.00 0.00 73 1018.1
20260506034528 4 0.0 0.0 0.00 0.00 0.00 73 1018.2
20260506034028 4 0.0 0.0 0.00 0.00 0.00 73 1018.1
20260506033528 4 0.0 0.0 0.00 0.00 0.00 73 1018.2
20260506033028 4 0.0 0.0 0.00 0.00 0.00 73 1018.2
20260506032528 4 0.0 0.0 0.00 0.00 0.00 73 1018.3
20260506032028 4 0.0 0.0 0.00 0.00 0.00 73 1018.2
20260506031528 4 0.0 0.0 0.00 0.00 0.00 73 1018.4
20260506031028 4 0.0 0.0 0.00 0.00 0.00 73 1018.4
20260506030528 4 0.0 0.0 0.00 0.00 0.00 73 1018.3
20260506030028 4 0.0 0.0 0.00 0.00 0.00 72 1018.4
20260506025528 4 0.0 0.0 0.00 0.00 0.00 72 1018.3
20260506025028 5 0.0 0.0 0.00 0.00 0.00 71 1018.3
20260506024528 5 0.0 0.0 0.00 0.00 0.00 71 1018.3
20260506024028 5 0.0 0.0 0.00 0.00 0.00 71 1018.3
20260506023528 5 0.0 0.0 0.00 0.00 0.00 71 1018.2
20260506023028 5 0.0 0.0 0.00 0.00 0.00 72 1018.0
20260506022528 5 0.0 0.0 0.00 0.00 0.00 72 1018.3
20260506022028 5 0.0 0.0 0.00 0.00 0.00 72 1018.3
20260506021528 5 0.0 0.0 0.00 0.00 0.00 72 1018.4
20260506021028 5 0.0 0.0 0.00 0.00 0.00 71 1018.3
20260506020528 5 0.0 0.0 0.00 0.00 0.00 71 1018.4
20260506020028 5 0.0 0.0 0.00 0.00 0.00 71 1018.2
20260506015528 5 0.0 0.0 0.00 0.00 0.00 71 1018.4
20260506015028 5 0.0 0.0 0.00 0.00 0.00 71 1018.2
20260506014528 5 0.0 0.0 0.00 0.00 0.00 71 1018.6
20260506014028 5 0.0 0.0 0.00 0.00 0.00 71 1018.3
20260506013528 5 0.0 0.0 0.00 0.00 0.00 71 1018.6
20260506013028 5 0.0 0.0 0.00 0.00 0.00 71 1018.8
20260506012528 5 0.0 0.0 0.00 0.00 0.00 71 1018.7
20260506012028 5 0.0 0.0 0.00 0.00 0.00 71 1018.8
20260506011528 5 0.0 0.0 0.00 0.00 0.00 70 1018.6
20260506011028 5 0.0 0.0 0.00 0.00 0.00 70 1018.8
20260506010528 5 0.0 0.0 0.00 0.00 0.00 69 1018.7
20260506010028 5 0.0 0.0 0.00 0.00 0.00 69 1018.8
20260506005527 5 69 0.0 0.0 0.00 0.00 0.00 68 1018.8
20260506005027 5 69 0.0 0.0 0.00 0.00 0.00 68 1018.8
20260506004527 5 74 0.0 0.0 0.00 0.00 0.00 67 1018.7
20260506004027 5 79 0.0 0.0 0.00 0.00 0.00 67 1018.8
20260506003527 6 81 6.4 6.4 0.00 0.00 0.00 67 1018.7
20260506003027 6 81 6.4 6.4 0.00 0.00 0.00 66 1018.6
20260506002527 6 75 4.8 6.4 0.00 0.00 0.00 66 1018.7
20260506002027 6 87 1.6 3.2 0.00 0.00 0.00 65 1018.8
20260506001527 6 0.0 0.0 0.00 0.00 0.00 65 1018.7
20260506001027 6 0.0 0.0 0.00 0.00 0.00 66 1018.6
20260506000527 6 162 1.6 3.2 0.00 0.00 0.00 66 1018.6
20260506000027 6 162 1.6 3.2 0.00 0.00 0.00 66 1018.6
20260505235527 6 186 6.4 9.7 0.00 0.00 0.00 66 1018.5
20260505235027 6 186 6.4 9.7 0.00 0.00 0.00 66 1018.7
20260505234527 6 178 3.2 4.8 0.00 0.00 0.00 66 1018.9
20260505234027 6 187 8.0 14.5 0.00 0.00 0.00 65 1018.8
20260505233527 6 0.0 0.0 0.00 0.00 0.00 65 1018.9
20260505233027 6 0.0 0.0 0.00 0.00 0.00 66 1019.0
20260505232527 6 0.0 0.0 0.00 0.00 0.00 67 1018.9
20260505232027 6 0.0 0.0 0.00 0.00 0.00 66 1018.8
20260505231527 6 0.0 0.0 0.00 0.00 0.00 66 1018.8
20260505231027 6 0.0 0.0 0.00 0.00 0.00 66 1018.9
20260505230527 6 0.0 0.0 0.00 0.00 0.00 67 1018.9
20260505230027 6 0.0 0.0 0.00 0.00 0.00 67 1019.1
20260505225527 6 180 8.0 9.7 0.00 0.00 0.00 67 1018.8
20260505225027 6 180 8.0 9.7 0.00 0.00 0.00 67 1019.2
20260505224527 6 0.0 0.0 0.00 0.00 0.00 68 1019.0
20260505224027 6 0.0 0.0 0.00 0.00 0.00 67 1018.9
20260505223527 6 0.0 0.0 0.00 0.00 0.00 68 1018.9
20260505223027 6 0.0 0.0 0.00 0.00 0.00 68 1019.0
20260505222527 6 0.0 0.0 0.00 0.00 0.00 67 1019.0
20260505222027 6 69 11.3 16.1 0.00 0.00 0.00 67 1019.2
20260505221527 6 69 11.3 16.1 0.00 0.00 0.00 67 1018.9
20260505221027 6 135 3.2 3.2 0.00 0.00 0.00 67 1019.1
20260505220527 6 135 3.2 3.2 0.00 0.00 0.00 67 1019.1
20260505220027 6 0.0 0.0 0.00 0.00 0.00 67 1019.1
20260505215527 6 67 3.2 6.4 0.00 0.00 0.00 67 1019.2
20260505215027 6 67 3.2 6.4 0.00 0.00 0.00 66 1019.0
20260505214527 6 104 8.0 11.3 0.00 0.00 0.00 66 1019.3
20260505214027 6 79 6.4 9.7 0.00 0.00 0.00 66 1019.0
20260505213527 6 135 8.0 11.3 0.00 0.00 0.00 66 1019.1
20260505213027 6 88 11.3 12.9 0.00 0.00 0.00 66 1019.1
20260505212527 6 154 4.8 6.4 0.00 0.00 0.00 66 1019.0
20260505212027 6 154 4.8 6.4 0.00 0.00 0.00 66 1019.1
20260505211527 6 165 8.0 11.3 0.00 0.00 0.00 66 1019.0
20260505211027 6 76 8.0 9.7 0.00 0.00 0.00 66 1019.0
20260505210527 6 176 8.0 14.5 0.00 0.00 0.00 66 1018.7
20260505210027 6 176 8.0 14.5 0.00 0.00 0.00 66 1018.9
20260505205527 6 89 6.4 9.7 0.00 0.00 0.00 66 1019.0
20260505205027 6 84 4.8 9.7 0.00 0.00 0.00 67 1018.9
20260505204527 7 141 6.4 11.3 0.00 0.00 0.00 67 1019.2
20260505204027 7 189 9.7 12.9 0.00 0.00 0.00 68 1019.0
20260505203527 7 142 4.8 6.4 0.00 0.00 0.00 68 1019.0
20260505203027 7 52 3.2 6.4 0.00 0.00 0.00 68 1019.0
20260505202527 7 146 9.7 14.5 0.00 0.00 0.00 68 1018.9
20260505202027 7 108 9.7 14.5 0.00 0.00 0.00 68 1018.9
20260505201527 7 142 6.4 9.7 0.00 0.00 0.00 68 1019.1
20260505201027 7 66 11.3 14.5 0.00 0.00 0.00 68 1018.9
20260505200527 7 89 6.4 11.3 0.00 0.00 0.00 68 1019.2
20260505200027 7 89 6.4 11.3 0.00 0.00 0.00 68 1018.9
20260505195527 7 117 9.7 16.1 0.00 0.00 0.00 69 1019.2
20260505195027 7 86 9.7 12.9 0.00 0.00 0.00 69 1019.0
20260505194527 7 0.0 0.0 0.00 0.00 0.00 69 1019.0
20260505194027 7 92 11.3 14.5 0.00 0.00 0.00 69 1018.8
20260505193527 7 92 11.3 14.5 0.00 0.00 0.00 69 1019.0
20260505193027 7 0.0 0.0 0.00 0.00 0.00 69 1019.0
20260505192527 7 0.0 0.0 0.00 0.00 0.00 69 1018.6
20260505192027 7 0.0 0.0 0.00 0.00 0.00 69 1018.7
20260505191527 7 0.0 0.0 0.00 0.00 0.00 69 1018.8
20260505191027 7 134 9.7 12.9 0.00 0.00 0.00 69 1018.9
20260505190527 7 134 9.7 12.9 0.00 0.00 0.00 69 1018.9
20260505190027 7 122 11.3 16.1 0.00 0.00 0.00 69 1018.9
20260505185527 7 0.0 0.0 0.00 0.00 0.00 69 1018.8
20260505185027 7 174 16.1 20.9 0.00 0.00 0.00 69 1018.7
20260505184527 7 174 16.1 20.9 0.00 0.00 0.00 68 1018.9
20260505184027 7 0.0 0.0 0.00 0.00 0.00 68 1018.7
20260505183527 8 101 12.9 14.5 0.00 0.00 0.00 68 1018.8
20260505183027 8 101 12.9 14.5 0.00 0.00 0.00 68 1018.7
20260505182527 8 0.0 0.0 0.00 0.00 0.00 68 1018.5
20260505182027 8 0.0 0.0 0.00 0.00 0.00 68 1018.8
20260505181527 8 0.0 0.0 0.00 0.00 0.00 67 1018.7
20260505181027 8 0.0 0.0 0.00 0.00 0.00 67 1018.9
20260505180526 8 0.0 0.0 0.00 0.00 0.00 67 1018.7
20260505180027 8 0.0 0.0 0.00 0.00 0.00 67 1018.7
20260505175526 8 0.0 0.0 0.00 0.00 0.00 67 1018.7
20260505175026 8 65 8.0 11.3 0.00 0.00 0.00 66 1018.6
20260505174526 8 65 8.0 11.3 0.00 0.00 0.00 67 1018.6
20260505174026 8 0.0 0.0 0.00 0.00 0.00 66 1018.5
20260505173526 8 0.0 0.0 0.00 0.00 0.00 66 1018.7
20260505173026 8 0.0 0.0 0.00 0.00 0.00 66 1018.8
20260505172526 8 163 9.7 12.9 0.00 0.00 0.00 65 1018.6
20260505172026 8 163 9.7 12.9 0.00 0.00 0.00 66 1018.8
20260505171526 8 170 6.4 9.7 0.00 0.00 0.00 66 1018.8
20260505171026 8 0.0 0.0 0.00 0.00 0.00 66 1018.8
20260505170526 8 0.0 0.0 0.00 0.00 0.00 66 1018.8
20260505170026 8 96 9.7 12.9 0.00 0.00 0.00 67 1018.8
20260505165526 8 96 9.7 12.9 0.00 0.00 0.00 67 1018.6
20260505165026 8 0.0 0.0 0.00 0.00 0.00 67 1018.8
20260505164526 8 0.0 0.0 0.00 0.00 0.00 67 1018.6
20260505164026 8 0.0 0.0 0.00 0.00 0.00 68 1018.5
20260505163526 8 0.0 0.0 0.00 0.00 0.00 67 1018.7
20260505163026 8 0.0 0.0 0.00 0.00 0.00 67 1018.6
20260505162526 8 103 9.7 12.9 0.00 0.00 0.00 68 1018.4
20260505162026 8 103 9.7 12.9 0.00 0.00 0.00 68 1018.3
20260505161526 8 0.0 0.0 0.00 0.00 0.00 68 1018.6
20260505161026 8 0.0 0.0 0.00 0.00 0.00 69 1018.6
20260505160526 8 0.0 0.0 0.00 0.00 0.00 70 1018.6
20260505153100 9 160 11.3 14.5 0.00 0.00 0.00 69 1018.5
20260505152600 9 0.0 0.0 0.00 0.00 0.00 68 1018.3
20260505152101 9 0.0 0.0 0.00 0.00 0.00 68 1018.5
20260505151600 9 0.0 0.0 0.00 0.00 0.00 68 1018.4
20260505151100 10 0.0 0.0 0.00 0.00 0.00 68 1018.8
20260505150600 10 161 12.9 17.7 0.00 0.00 0.00 67 1018.5
20260505140600 11 0.0 0.0 0.00 0.00 0.00 66 1018.3